KD9ZDW Weather Reports


time (UTC)temp
F
wind
direction
speed
knots
gust
knots
rain 1hr
in
rain 24hr
in
rain mn
in
humidity
%
barometer
mb
20260507023222 50 260 3.5 4.3 0.00 0.02 0.02 60 1016.1
20260507022720 51 264 0.9 1.7 0.00 0.02 0.02 61 1016.3
20260507022216 51 272 0.9 1.7 0.00 0.02 0.02 60 1016.2
20260507021712 51 279 0.0 0.9 0.00 0.02 0.02 58 1016.1
20260507021207 51 239 1.7 1.7 0.00 0.02 0.02 58 1016.0
20260507020707 51 269 0.9 1.7 0.00 0.02 0.02 60 1016.2
20260507020202 51 273 0.0 0.9 0.00 0.02 0.02 58 1016.0
20260507015700 52 281 1.7 1.7 0.00 0.02 0.02 57 1016.1
20260507015157 52 270 0.0 1.7 0.00 0.02 0.02 55 1015.9
20260507014653 52 275 0.9 1.7 0.00 0.02 0.02 54 1016.0
20260507014150 52 269 0.9 1.7 0.00 0.02 0.02 56 1016.0
20260507013647 52 260 0.9 2.6 0.00 0.02 0.02 53 1016.0
20260507013144 52 256 2.6 2.6 0.00 0.02 0.02 53 1015.8
20260507012642 52 283 3.5 4.3 0.00 0.02 0.02 51 1015.8
20260507012136 52 270 0.9 1.7 0.00 0.02 0.02 53 1015.6
20260507011635 52 285 1.7 2.6 0.00 0.02 0.02 54 1015.6
20260507011131 51 274 0.0 1.7 0.00 0.02 0.02 61 1015.7
20260507010626 51 281 2.6 2.6 0.00 0.02 0.02 57 1015.7
20260507010122 51 277 0.0 0.9 0.00 0.02 0.02 59 1015.6
20260507005619 51 272 0.9 0.9 0.00 0.02 0.02 59 1015.4
20260507005115 52 293 0.0 0.9 0.00 0.02 0.02 59 1015.4
20260507004613 52 274 0.0 0.9 0.00 0.02 0.02 56 1015.4
20260507004110 53 281 0.0 1.7 0.00 0.02 0.02 50 1015.3
20260507003606 53 282 0.9 1.7 0.00 0.02 0.02 49 1015.1
20260507003101 53 285 0.0 1.7 0.00 0.02 0.02 51 1015.3
20260507002558 53 278 0.9 0.9 0.00 0.02 0.02 50 1015.1
20260507002053 53 259 0.9 1.7 0.00 0.02 0.02 50 1015.2
20260507001550 54 274 0.9 1.7 0.00 0.02 0.02 50 1015.2
20260507001048 54 263 4.3 6.1 0.00 0.02 0.02 48 1015.1
20260507000544 54 263 1.7 5.2 0.00 0.02 0.02 46 1015.1
20260507000039 54 278 2.6 2.6 0.00 0.02 0.02 49 1015.3
20260506235537 54 298 2.6 2.6 0.00 0.02 0.02 45 1015.0
20260506235032 54 301 0.9 2.6 0.00 0.02 0.02 45 1015.2
20260506234530 55 262 2.6 5.2 0.00 0.02 0.02 46 1015.2
20260506234027 54 246 2.6 4.3 0.00 0.02 0.02 45 1015.2
20260506233524 54 276 2.6 4.3 0.00 0.02 0.02 46 1015.1
20260506233021 54 281 0.9 4.3 0.00 0.02 0.02 47 1015.1
20260506232517 54 294 0.9 1.7 0.00 0.02 0.02 46 1015.2
20260506232013 55 313 1.7 2.6 0.00 0.02 0.02 44 1015.2
20260506231510 55 269 3.5 7.0 0.00 0.02 0.02 44 1015.1
20260506231008 55 272 0.9 2.6 0.00 0.02 0.02 47 1015.2
20260506230504 55 273 1.7 4.3 0.00 0.02 0.02 47 1015.2
20260506230001 55 267 0.9 2.6 0.00 0.02 0.02 46 1015.3
20260506225458 55 232 0.9 2.6 0.00 0.02 0.02 45 1015.2
20260506224954 55 300 1.7 4.3 0.00 0.02 0.02 44 1015.3
20260506224452 55 236 2.6 4.3 0.00 0.02 0.02 43 1015.2
20260506223948 55 277 1.7 1.7 0.00 0.02 0.02 45 1015.3
20260506223444 55 294 2.6 5.2 0.00 0.02 0.02 47 1015.1
20260506222941 56 311 2.6 5.2 0.00 0.02 0.02 44 1015.4
20260506222438 56 287 0.9 2.6 0.00 0.02 0.02 45 1015.4
20260506221935 55 264 2.6 7.0 0.00 0.02 0.02 44 1015.1
20260506221432 56 275 4.3 7.8 0.00 0.02 0.02 41 1015.1
20260506220930 56 274 2.6 4.3 0.00 0.02 0.02 42 1015.1
20260506220425 56 270 3.5 5.2 0.00 0.02 0.02 42 1015.1
20260506215922 56 251 6.1 7.0 0.00 0.02 0.02 41 1015.0
20260506215418 56 281 3.5 7.0 0.00 0.02 0.02 42 1015.1
20260506214914 56 222 5.2 7.8 0.00 0.02 0.02 41 1015.0
20260506214411 56 321 1.7 6.1 0.00 0.02 0.02 43 1015.0
20260506213909 56 270 4.3 7.0 0.00 0.02 0.02 41 1015.1
20260506213406 56 274 1.7 4.3 0.00 0.02 0.02 46 1015.1
20260506212903 55 294 0.9 2.6 0.00 0.02 0.02 39 1015.0
20260506212359 56 269 2.6 4.3 0.00 0.02 0.02 42 1015.1
20260506211854 56 328 3.5 5.2 0.00 0.02 0.02 44 1015.1
20260506211350 56 248 3.5 5.2 0.00 0.02 0.02 41 1015.2
20260506210848 56 268 0.0 0.9 0.00 0.02 0.02 42 1015.1
20260506210344 55 338 1.7 2.6 0.00 0.02 0.02 44 1015.0
20260506205842 55 298 0.9 2.6 0.00 0.02 0.02 42 1015.3
20260506205337 56 284 1.7 2.6 0.00 0.02 0.02 45 1015.2
20260506204834 56 240 5.2 6.1 0.00 0.02 0.02 39 1015.2
20260506204332 57 285 2.6 6.1 0.00 0.02 0.02 42 1015.3
20260506203829 57 289 0.9 2.6 0.00 0.02 0.02 44 1015.2
20260506203326 55 309 0.9 4.3 0.00 0.02 0.02 40 1015.2
20260506202823 57 224 6.1 9.6 0.00 0.02 0.02 43 1015.2
20260506202320 56 317 4.3 6.1 0.00 0.02 0.02 42 1015.2
20260506201816 56 274 6.1 7.0 0.00 0.02 0.02 41 1015.1
20260506201314 56 268 5.2 6.1 0.00 0.02 0.02 42 1015.2
20260506200811 56 259 2.6 4.3 0.00 0.02 0.02 41 1015.3
20260506200307 55 283 1.7 4.3 0.00 0.02 0.02 43 1015.3
20260506195803 56 272 0.9 4.3 0.00 0.02 0.02 43 1015.2
20260506195300 55 263 2.6 6.1 0.00 0.02 0.02 42 1015.3
20260506194757 56 269 5.2 6.1 0.00 0.02 0.02 42 1015.4
20260506194253 55 5 2.6 5.2 0.00 0.02 0.02 41 1015.4
20260506193752 54 281 0.9 7.8 0.00 0.02 0.02 43 1015.5
20260506193248 55 289 3.5 8.7 0.00 0.02 0.02 42 1015.5
20260506192744 55 276 2.6 7.0 0.00 0.02 0.02 42 1015.6
20260506192241 54 303 0.0 4.3 0.00 0.02 0.02 44 1015.4
20260506191738 54 237 1.7 2.6 0.00 0.02 0.02 43 1015.7
20260506191234 54 257 3.5 5.2 0.00 0.02 0.02 43 1015.5
20260506190732 54 334 2.6 5.2 0.00 0.02 0.02 43 1015.6
20260506190228 54 262 0.0 1.7 0.00 0.02 0.02 44 1015.5
20260506185725 54 354 2.6 7.0 0.00 0.02 0.02 46 1015.5
20260506185221 54 251 3.5 5.2 0.00 0.02 0.02 44 1015.4
20260506184719 54 263 1.7 2.6 0.00 0.02 0.02 46 1015.6
20260506184216 54 323 2.6 2.6 0.00 0.02 0.02 48 1015.6
20260506183713 53 295 0.9 2.6 0.00 0.02 0.02 44 1015.6
20260506183208 54 300 0.9 1.7 0.00 0.02 0.02 46 1015.6
20260506182706 54 331 1.7 4.3 0.00 0.02 0.02 43 1015.8
20260506182203 54 277 3.5 4.3 0.00 0.02 0.02 44 1015.6
20260506181701 54 286 0.9 4.3 0.00 0.02 0.02 44 1015.6
20260506181158 54 319 0.9 1.7 0.00 0.02 0.02 42 1015.7
20260506180655 54 286 2.6 6.1 0.00 0.02 0.02 44 1015.8
20260506180151 54 291 1.7 2.6 0.00 0.02 0.02 47 1015.6
20260506175647 54 337 1.7 1.7 0.00 0.02 0.02 40 1015.6
20260506175144 55 255 4.3 5.2 0.00 0.02 0.02 42 1015.5
20260506174637 55 300 1.7 5.2 0.00 0.02 0.02 44 1015.6
20260506174134 54 282 2.6 2.6 0.00 0.02 0.02 43 1015.3
20260506173631 55 319 1.7 7.8 0.00 0.02 0.02 42 1015.4
20260506173128 54 325 3.5 5.2 0.00 0.02 0.02 43 1015.5
20260506172625 54 338 1.7 5.2 0.00 0.02 0.02 42 1015.7
20260506172121 53 322 0.9 1.7 0.00 0.02 0.02 42 1015.3
20260506171619 53 301 0.9 6.1 0.00 0.02 0.02 41 1015.2
20260506171117 54 12 1.7 4.3 0.00 0.02 0.02 46 1015.5
20260506170615 54 330 2.6 4.3 0.00 0.02 0.02 46 1015.4
20260506170111 54 341 2.6 7.0 0.00 0.02 0.02 44 1015.4
20260506165609 53 32 1.7 4.3 0.00 0.02 0.02 43 1015.4
20260506165106 54 32 3.5 4.3 0.00 0.02 0.02 44 1015.5
20260506164603 53 299 0.9 2.6 0.00 0.02 0.02 41 1015.6
20260506164100 54 203 1.7 5.2 0.00 0.02 0.02 47 1015.5
20260506163555 54 281 0.9 4.3 0.00 0.02 0.02 43 1015.5
20260506163052 53 287 0.9 2.6 0.00 0.02 0.02 48 1015.7
20260506162548 55 281 4.3 6.1 0.00 0.02 0.02 46 1015.7
20260506162045 54 296 0.9 1.7 0.00 0.02 0.02 44 1015.6
20260506161543 55 347 5.2 7.0 0.00 0.02 0.02 41 1015.6
20260506161039 53 301 0.9 1.7 0.00 0.02 0.02 42 1015.5
20260506160537 55 265 2.6 5.2 0.00 0.02 0.02 39 1015.5
20260506160034 54 313 2.6 4.3 0.00 0.02 0.02 44 1015.8
20260506155532 54 31 3.5 6.1 0.00 0.02 0.02 41 1015.6
20260506153703 53 4 2.6 4.3 0.00 0.02 0.02 44 1015.8
20260506153201 52 61 0.9 4.3 0.00 0.02 0.02 49 1015.8
20260506152658 53 13 3.5 6.1 0.00 0.02 0.02 45 1015.6
20260506152155 54 261 0.9 4.3 0.00 0.02 0.02 45 1015.6
20260506151654 53 288 2.6 4.3 0.00 0.02 0.02 50 1015.6
20260506151150 53 237 4.3 5.2 0.00 0.02 0.02 47 1015.5
20260506150647 53 239 3.5 5.2 0.00 0.02 0.02 44 1015.5
20260506150144 52 9 1.7 2.6 0.00 0.02 0.02 53 1015.3
20260506145641 51 15 2.6 5.2 0.00 0.02 0.02 47 1015.4
20260506145137 52 34 3.5 4.3 0.00 0.02 0.02 48 1015.3
20260506144635 51 38 2.6 6.1 0.00 0.02 0.02 47 1015.4
20260506144131 52 65 1.7 6.1 0.00 0.02 0.02 45 1015.3
20260506143629 52 44 1.7 2.6 0.00 0.02 0.02 50 1015.2
20260506143127 53 256 2.6 2.6 0.00 0.02 0.02 52 1015.0
20260506142625 52 307 2.6 4.3 0.00 0.02 0.02 55 1014.9
20260506142123 51 278 3.5 5.2 0.00 0.02 0.02 51 1015.1
20260506141620 51 18 0.9 2.6 0.00 0.02 0.02 50 1015.0
20260506141119 51 356 0.9 4.3 0.00 0.02 0.02 50 1014.8
20260506140616 51 299 0.9 0.9 0.00 0.02 0.02 50 1014.8
20260506140113 49 277 1.7 1.7 0.00 0.02 0.02 55 1014.8
20260506135610 51 11 2.6 5.2 0.00 0.02 0.02 52 1014.8
20260506135106 50 23 0.9 2.6 0.00 0.02 0.02 52 1014.8
20260506134602 48 288 0.9 1.7 0.00 0.02 0.02 52 1014.9
20260506134058 49 323 2.6 6.1 0.00 0.02 0.02 53 1015.0
20260506133556 49 308 2.6 4.3 0.00 0.02 0.02 55 1014.8
20260506133053 48 77 2.6 5.2 0.00 0.02 0.02 54 1014.8
20260506132550 49 67 2.6 4.3 0.00 0.02 0.02 60 1014.9
20260506132047 48 30 1.7 2.6 0.00 0.02 0.02 59 1014.7
20260506131544 48 6 1.7 4.3 0.00 0.02 0.02 56 1014.7
20260506131040 47 78 0.9 5.2 0.00 0.02 0.02 60 1014.5
20260506130538 48 24 2.6 4.3 0.00 0.02 0.02 62 1014.5
20260506130035 48 359 2.6 4.3 0.00 0.02 0.02 66 1014.2
20260506125533 47 333 0.9 4.3 0.00 0.02 0.02 65 1014.3
20260506125031 47 23 1.7 5.2 0.00 0.02 0.02 66 1014.5
20260506124528 47 2 3.5 5.2 0.00 0.02 0.02 69 1014.1
20260506124026 46 298 1.7 2.6 0.00 0.02 0.02 73 1014.2
20260506123524 46 291 0.9 4.3 0.00 0.02 0.02 75 1013.6
20260506123021 46 313 1.7 1.7 0.00 0.02 0.02 76 1014.2
20260506122518 46 302 0.9 1.7 0.00 0.02 0.02 75 1014.3
20260506122016 46 10 2.6 4.3 0.00 0.02 0.02 74 1014.2
20260506121513 46 356 3.5 6.1 0.00 0.02 0.02 80 1014.1
20260506121009 45 9 0.9 5.2 0.00 0.02 0.02 88 1014.1
20260506120508 44 335 1.7 2.6 0.00 0.02 0.02 93 1013.9
20260506120005 45 290 0.0 1.7 0.00 0.02 0.02 94 1013.9
20260506115502 44 293 0.9 2.6 0.00 0.02 0.02 95 1013.5
20260506115001 44 307 0.9 1.7 0.00 0.02 0.02 96 1013.5
20260506114457 45 278 0.9 0.9 0.00 0.02 0.02 96 1013.1
20260506113956 45 273 0.0 0.9 0.00 0.02 0.02 96 1013.4
20260506113453 44 261 0.0 0.0 0.00 0.02 0.02 96 1013.3
20260506112950 44 261 0.9 0.9 0.00 0.02 0.02 96 1013.1
20260506112447 44 268 0.9 0.9 0.00 0.02 0.02 96 1013.1
20260506111944 44 271 0.0 0.0 0.00 0.02 0.02 96 1013.0
20260506111443 44 289 0.0 0.9 0.00 0.02 0.02 96 1012.9
20260506110939 44 274 0.0 0.0 0.00 0.02 0.02 96 1012.8
20260506110437 44 269 0.0 0.9 0.00 0.02 0.02 96 1012.8
20260506105933 44 270 0.0 0.0 0.00 0.02 0.02 96 1012.7
20260506105430 44 268 0.0 0.0 0.00 0.02 0.02 96 1012.4
20260506104927 44 270 0.0 0.0 0.00 0.02 0.02 96 1012.5
20260506104425 44 301 0.9 0.9 0.00 0.02 0.02 96 1012.5
20260506103923 44 282 0.9 0.9 0.00 0.02 0.02 96 1012.6
20260506103420 44 271 0.0 0.9 0.00 0.02 0.02 96 1012.5
20260506102917 44 271 0.0 0.0 0.00 0.02 0.02 96 1012.2
20260506102415 44 275 0.0 0.0 0.00 0.02 0.02 96 1012.2
20260506101912 44 270 0.9 1.7 0.00 0.02 0.02 96 1012.2
20260506101408 44 265 1.7 1.7 0.00 0.02 0.02 96 1012.2
20260506100906 44 286 0.0 0.9 0.00 0.02 0.02 96 1012.0
20260506100404 44 280 0.0 0.0 0.00 0.02 0.02 95 1011.8
20260506095902 44 271 0.0 0.0 0.00 0.02 0.02 95 1011.9
20260506095400 44 276 0.0 0.9 0.00 0.02 0.02 95 1011.8
20260506094856 44 286 0.9 0.9 0.00 0.02 0.02 95 1011.8
20260506094355 44 281 0.9 0.9 0.00 0.02 0.02 95 1012.1
20260506093852 44 268 0.0 0.9 0.00 0.02 0.02 95 1012.2
20260506093350 44 282 0.9 0.9 0.00 0.02 0.02 95 1012.0
20260506092847 44 278 0.9 0.9 0.00 0.02 0.02 95 1012.1
20260506092345 44 267 0.9 1.7 0.00 0.02 0.02 95 1012.0
20260506091841 44 257 0.0 0.9 0.00 0.02 0.02 95 1011.9
20260506091339 44 267 0.0 0.9 0.00 0.02 0.02 95 1011.9
20260506090836 44 284 0.9 0.9 0.00 0.02 0.02 95 1012.1
20260506090334 44 271 0.0 0.9 0.00 0.02 0.02 95 1011.9
20260506085830 44 261 0.9 1.7 0.00 0.02 0.02 95 1011.9
20260506085326 44 263 0.9 0.9 0.00 0.02 0.02 95 1011.7
20260506084823 44 236 0.9 0.9 0.00 0.02 0.02 95 1011.5
20260506084320 44 276 0.9 1.7 0.00 0.02 0.02 95 1011.7
20260506083817 44 303 0.0 0.0 0.00 0.02 0.02 95 1011.7
20260506083314 44 264 0.0 0.0 0.00 0.02 0.02 95 1011.7
20260506082812 43 261 0.0 0.0 0.00 0.02 0.02 95 1011.7
20260506082308 43 275 0.9 0.9 0.00 0.02 0.02 95 1011.6
20260506081805 43 269 0.0 0.0 0.00 0.02 0.02 95 1011.8
20260506081302 44 257 0.0 0.0 0.00 0.02 0.02 95 1011.8
20260506080800 44 269 0.0 0.0 0.00 0.02 0.02 95 1011.7
20260506080256 43 269 0.9 0.9 0.00 0.02 0.02 95 1011.5
20260506073240 43 268 0.0 0.0 0.00 0.02 0.02 95 1011.1
20260506072737 44 269 3.5 4.3 0.00 0.02 0.02 95 1011.5
20260506072235 44 268 0.0 0.9 0.00 0.02 0.02 95 1011.4
20260506071732 44 292 0.9 0.9 0.00 0.02 0.02 95 1011.2
20260506071230 44 271 0.0 0.9 0.00 0.02 0.02 95 1011.3
20260506070727 44 248 0.9 0.9 0.00 0.02 0.02 95 1011.0
20260506070224 44 272 0.9 0.9 0.00 0.02 0.02 95 1011.0
20260506062200 44 258 0.0 0.9 0.00 0.01 0.01 95 1011.6
20260506061656 44 247 0.0 0.9 0.00 0.01 0.01 95 1012.0
20260506061154 44 267 0.0 0.9 0.00 0.01 0.01 95 1012.1
20260506060653 45 267 0.0 0.0 0.00 0.01 0.01 95 1012.2
20260506060149 44 281 0.9 0.9 0.00 0.01 0.01 95 1012.0
20260506051121 45 262 0.0 0.0 0.00 0.00 0.00 94 1011.9
20260506050619 45 266 0.0 0.9 0.00 0.00 0.00 94 1012.2
20260506050116 45 265 0.0 0.9 0.00 0.00 0.00 94 1012.0
20260506045109 45 279 0.0 0.9 0.00 0.00 0.00 94 1011.7
20260506044608 45 279 0.0 0.0 0.00 0.00 0.00 94 1011.8
20260506044104 45 271 0.0 0.9 0.00 0.00 0.00 93 1011.9
20260506043601 45 270 0.0 0.0 0.00 0.00 0.00 93 1011.8
20260506043059 45 269 0.0 0.0 0.00 0.00 0.00 93 1011.7
20260506042558 44 264 0.0 0.0 0.00 0.00 0.00 93 1011.5
20260506042056 44 263 0.0 0.0 0.00 0.00 0.00 93 1011.5
20260506041554 44 258 0.0 0.0 0.00 0.00 0.00 93 1011.7
20260506041051 45 267 0.0 0.0 0.00 0.00 0.00 93 1011.5
20260506040549 45 261 0.0 0.0 0.00 0.00 0.00 93 1011.7
20260506040044 45 267 0.0 0.0 0.00 0.52 0.52 93 1011.6
20260506035542 45 258 0.0 0.0 0.00 0.52 0.52 92 1011.7
20260506035038 44 266 0.0 0.0 0.00 0.52 0.52 92 1011.5
20260506034536 44 268 0.0 0.9 0.00 0.52 0.52 92 1011.7
20260506034032 44 258 0.0 0.0 0.00 0.52 0.52 92 1011.5
20260506033530 44 257 0.0 0.0 0.00 0.52 0.52 92 1011.5
20260506033027 44 255 0.0 0.0 0.05 0.52 0.52 93 1011.6
20260506032524 44 263 0.0 0.0 0.05 0.52 0.52 93 1011.7
20260506032020 44 262 0.0 0.0 0.00 0.51 0.51 93 1011.7
20260506031518 45 258 0.0 0.0 0.00 0.51 0.51 93 1011.6
20260506031015 45 251 0.0 0.0 0.00 0.51 0.51 93 1011.7
20260506030513 45 271 0.0 0.0 0.00 0.51 0.51 93 1011.7
20260506030010 45 267 0.0 0.0 0.00 0.51 0.51 92 1011.6
20260506025507 44 272 0.0 0.0 0.00 0.51 0.51 92 1011.6
20260506025003 44 273 0.0 0.0 0.00 0.51 0.51 92 1011.6
20260506024500 44 269 0.0 0.0 0.00 0.51 0.51 93 1011.5
20260506023956 45 268 0.0 0.0 0.00 0.51 0.51 93 1011.7
20260506023453 45 282 0.0 0.9 0.00 0.51 0.51 93 1011.4